sat.trackr.live / text

‹ back to catalog

2025-197A

NORAD 65488 · 2025-197A

PAYLOAD ACTIVE UNKNOWN

§ Identity

Operator
Country
PRC
Launch date
2025-09-05
Launch site
JSC
Launch vehicle
Mass (kg)
RCS (m²)

External: N2YO · Heavens-Above · Gunter

§ Orbital elements

Epoch: 2026-05-25T01:45:06.009408Z

Period
95.35 min
Inclination
97.4132°
Eccentricity
0.0015283
Mean motion
15.10249695 rev/d
Perigee alt
524.9 km
Apogee alt
546.0 km
Semi-major
6,913.6 km
B*
1.5537e-4
RAAN
327.9709°
Arg perigee
106.7353°
Mean anomaly
253.5555°
Rev number
3,952

§ Raw data

2025-197A1 65488U 25197A   26145.07298622  .00002486  00000+0  15537-3 0  99922 65488  97.4132 327.9709 0015283 106.7353 253.5555 15.10249695 39521

JSON: /api/v1/satellites/65488 · /tle

For live sub-satellite position, see the globe view (requires WebGL).

§ Visibility from observer

Set your observer location to see the next 7 days of passes ≥ 10°. The values pass through the URL so the page stays shareable.

No JS? Fill the form by hand. The geolocation button needs JavaScript.